Time,TemperatureF,DewpointF,PressureIn,WindDirection,WindDirectionDegrees,WindSpeedMPH,WindSpeedGustMPH,Humidity,HourlyPrecipIn,Conditions,Clouds,dailyrainin,SoftwareType,DateUTC
2013-09-06 00:03:00,60.4,31.2,29.99,SW,221,0.0,0.0,33,0.00,,,0.00,VWS V14.01,2013-09-06 07:03:00,
2013-09-06 00:08:00,60.3,31.8,29.99,SW,221,0.0,0.0,34,0.00,,,0.00,VWS V14.01,2013-09-06 07:08:00,
2013-09-06 00:13:00,60.3,31.8,29.99,SW,221,0.0,0.0,34,0.00,,,0.00,VWS V14.01,2013-09-06 07:13:00,
2013-09-06 00:18:00,60.1,31.6,29.99,SW,221,0.0,0.0,34,0.00,,,0.00,VWS V14.01,2013-09-06 07:18:00,
2013-09-06 00:23:00,59.9,31.5,29.99,SW,221,0.0,0.0,34,0.00,,,0.00,VWS V14.01,2013-09-06 07:23:00,
2013-09-06 00:28:00,59.7,31.3,29.99,SW,221,0.0,0.0,34,0.00,,,0.00,VWS V14.01,2013-09-06 07:28:00,
2013-09-06 00:33:00,59.7,32.0,29.99,SW,221,2.7,2.7,35,0.00,,,0.00,VWS V14.01,2013-09-06 07:33:00,
2013-09-06 00:38:00,60.1,33.1,29.99,SSW,211,2.7,3.6,36,0.00,,,0.00,VWS V14.01,2013-09-06 07:38:00,
2013-09-06 00:43:00,60.1,33.1,29.99,SSW,212,0.0,0.0,36,0.00,,,0.00,VWS V14.01,2013-09-06 07:43:00,
2013-09-06 00:48:00,59.9,33.6,29.99,SSW,212,0.0,0.0,37,0.00,,,0.00,VWS V14.01,2013-09-06 07:48:00,
2013-09-06 00:53:00,59.7,33.4,29.99,SSW,212,0.0,0.0,37,0.00,,,0.00,VWS V14.01,2013-09-06 07:53:00,
2013-09-06 00:58:00,59.4,33.1,29.99,SSW,212,0.0,0.0,37,0.00,,,0.00,VWS V14.01,2013-09-06 07:58:00,
2013-09-06 01:03:00,59.4,33.1,29.99,SSW,208,0.0,0.0,37,0.00,,,0.00,VWS V14.01,2013-09-06 08:03:00,
2013-09-06 01:08:00,59.2,33.0,29.99,SSW,205,2.2,2.2,37,0.00,,,0.00,VWS V14.01,2013-09-06 08:08:00,
2013-09-06 01:13:00,59.0,33.5,29.99,SSW,204,0.0,0.0,38,0.00,,,0.00,VWS V14.01,2013-09-06 08:13:00,
2013-09-06 01:18:00,59.0,33.5,29.99,SSW,204,0.0,0.0,38,0.00,,,0.00,VWS V14.01,2013-09-06 08:18:00,
2013-09-06 01:23:00,58.8,33.9,29.99,SSW,204,0.0,0.0,39,0.00,,,0.00,VWS V14.01,2013-09-06 08:23:00,
2013-09-06 01:28:00,58.8,33.9,29.99,SSW,204,0.0,0.0,39,0.00,,,0.00,VWS V14.01,2013-09-06 08:28:00,
2013-09-06 01:33:00,58.6,33.8,29.99,SSW,204,0.0,0.0,39,0.00,,,0.00,VWS V14.01,2013-09-06 08:33:00,
2013-09-06 01:38:00,58.6,34.4,29.99,SSW,204,0.0,0.0,40,0.00,,,0.00,VWS V14.01,2013-09-06 08:38:00,
2013-09-06 01:43:00,58.5,34.2,29.99,SSW,204,0.0,0.0,40,0.00,,,0.00,VWS V14.01,2013-09-06 08:43:00,
2013-09-06 01:48:00,58.5,34.9,29.99,SSW,204,0.0,0.0,41,0.00,,,0.00,VWS V14.01,2013-09-06 08:48:00,
2013-09-06 01:53:00,58.5,34.9,29.99,SSW,204,0.0,0.0,41,0.00,,,0.00,VWS V14.01,2013-09-06 08:53:00,
2013-09-06 01:58:00,58.3,35.3,29.99,SSW,204,0.0,0.0,42,0.00,,,0.00,VWS V14.01,2013-09-06 08:58:00,
2013-09-06 02:03:00,58.1,35.2,29.99,SSW,205,0.0,0.0,42,0.00,,,0.00,VWS V14.01,2013-09-06 09:03:00,
2013-09-06 02:08:00,58.1,35.7,29.99,SSW,204,0.0,2.2,43,0.00,,,0.00,VWS V14.01,2013-09-06 09:08:00,
2013-09-06 02:13:00,58.3,35.9,29.99,SSW,204,2.2,3.1,43,0.00,,,0.00,VWS V14.01,2013-09-06 09:13:00,
2013-09-06 02:18:00,58.5,36.7,29.99,SSW,205,0.0,0.0,44,0.00,,,0.00,VWS V14.01,2013-09-06 09:18:00,
2013-09-06 02:23:00,58.6,37.4,29.99,SSW,204,0.0,0.0,45,0.00,,,0.00,VWS V14.01,2013-09-06 09:23:00,
2013-09-06 02:28:00,58.8,37.5,29.99,SSW,204,0.0,0.0,45,0.00,,,0.00,VWS V14.01,2013-09-06 09:28:00,
2013-09-06 02:33:00,59.0,37.7,29.99,SSW,204,0.0,0.0,45,0.00,,,0.00,VWS V14.01,2013-09-06 09:33:00,
2013-09-06 02:38:00,59.0,37.7,29.99,SSW,204,0.0,0.0,45,0.00,,,0.00,VWS V14.01,2013-09-06 09:38:00,
2013-09-06 02:43:00,58.8,37.5,29.99,SSW,204,0.0,0.0,45,0.00,,,0.00,VWS V14.01,2013-09-06 09:43:00,
2013-09-06 02:48:00,59.0,37.7,29.99,SSW,204,0.0,0.0,45,0.00,,,0.00,VWS V14.01,2013-09-06 09:48:00,
2013-09-06 02:53:00,58.8,37.5,29.99,SSW,204,0.0,0.0,45,0.00,,,0.00,VWS V14.01,2013-09-06 09:53:00,
2013-09-06 02:58:00,58.8,38.1,29.99,SSW,205,0.0,0.0,46,0.00,,,0.00,VWS V14.01,2013-09-06 09:58:00,
2013-09-06 03:03:00,58.8,38.1,29.99,SSW,204,0.0,0.0,46,0.00,,,0.00,VWS V14.01,2013-09-06 10:03:00,
2013-09-06 03:08:00,58.6,37.9,29.96,SSW,205,0.0,0.0,46,0.00,,,0.00,VWS V14.01,2013-09-06 10:08:00,
2013-09-06 03:13:00,58.6,37.9,29.96,SSW,204,0.0,0.0,46,0.00,,,0.00,VWS V14.01,2013-09-06 10:13:00,
2013-09-06 03:18:00,58.6,37.9,29.96,SSW,204,0.0,0.0,46,0.00,,,0.00,VWS V14.01,2013-09-06 10:18:00,
2013-09-06 03:23:00,58.6,37.9,29.96,SSW,205,0.0,0.0,46,0.00,,,0.00,VWS V14.01,2013-09-06 10:23:00,
2013-09-06 03:28:00,58.6,37.9,29.96,SSW,204,0.0,0.0,46,0.00,,,0.00,VWS V14.01,2013-09-06 10:28:00,
2013-09-06 03:33:00,58.5,37.8,29.96,SSW,204,0.0,0.0,46,0.00,,,0.00,VWS V14.01,2013-09-06 10:33:00,
2013-09-06 03:38:00,58.6,38.5,29.96,SSW,204,0.0,0.0,47,0.00,,,0.00,VWS V14.01,2013-09-06 10:38:00,
2013-09-06 03:43:00,58.5,37.8,29.96,SSW,204,0.0,0.0,46,0.00,,,0.00,VWS V14.01,2013-09-06 10:43:00,
2013-09-06 03:48:00,58.3,37.6,29.96,SSW,204,0.0,0.0,46,0.00,,,0.00,VWS V14.01,2013-09-06 10:48:00,
2013-09-06 03:53:00,58.1,38.0,29.96,SSW,204,2.2,2.2,47,0.00,,,0.00,VWS V14.01,2013-09-06 10:53:00,
2013-09-06 03:58:00,58.8,38.7,29.96,SSW,204,0.0,0.0,47,0.00,,,0.00,VWS V14.01,2013-09-06 10:58:00,
2013-09-06 04:03:00,58.8,38.7,29.96,SSW,204,0.0,0.0,47,0.00,,,0.00,VWS V14.01,2013-09-06 11:03:00,
2013-09-06 04:08:00,59.0,38.8,29.96,SSW,204,0.0,0.0,47,0.00,,,0.00,VWS V14.01,2013-09-06 11:08:00,
2013-09-06 04:13:00,58.8,38.7,29.96,SSW,204,0.0,0.0,47,0.00,,,0.00,VWS V14.01,2013-09-06 11:13:00,
2013-09-06 04:19:00,58.5,38.3,29.96,SSW,204,0.0,0.0,47,0.00,,,0.00,VWS V14.01,2013-09-06 11:19:00,
2013-09-06 04:24:00,58.3,38.2,29.96,SSW,204,0.0,0.0,47,0.00,,,0.00,VWS V14.01,2013-09-06 11:24:00,
2013-09-06 04:29:00,58.1,37.5,29.96,SSW,204,0.0,0.0,46,0.00,,,0.00,VWS V14.01,2013-09-06 11:29:00,
2013-09-06 04:34:00,58.1,37.5,29.96,SSW,204,0.0,0.0,46,0.00,,,0.00,VWS V14.01,2013-09-06 11:34:00,
2013-09-06 04:39:00,57.9,37.3,29.96,SSW,204,0.0,0.0,46,0.00,,,0.00,VWS V14.01,2013-09-06 11:39:00,
2013-09-06 04:44:00,57.7,37.7,29.96,SSW,205,0.0,0.0,47,0.00,,,0.00,VWS V14.01,2013-09-06 11:44:00,
2013-09-06 04:49:00,57.7,37.7,29.96,SSW,204,0.0,0.0,47,0.00,,,0.00,VWS V14.01,2013-09-06 11:49:00,
2013-09-06 04:54:00,57.7,37.7,29.96,SSW,204,0.0,0.0,47,0.00,,,0.00,VWS V14.01,2013-09-06 11:54:00,
2013-09-06 04:59:00,57.7,37.7,29.96,SSW,204,0.0,0.0,47,0.00,,,0.00,VWS V14.01,2013-09-06 11:59:00,
2013-09-06 05:04:00,57.6,37.0,29.96,SSW,204,0.0,0.0,46,0.00,,,0.00,VWS V14.01,2013-09-06 12:04:00,
2013-09-06 05:09:00,57.6,37.0,29.96,SSW,204,0.0,0.0,46,0.00,,,0.00,VWS V14.01,2013-09-06 12:09:00,
2013-09-06 05:14:00,57.4,36.8,29.96,SSW,204,0.0,0.0,46,0.00,,,0.00,VWS V14.01,2013-09-06 12:14:00,
2013-09-06 05:19:00,57.2,36.6,29.96,SSW,204,0.0,0.0,46,0.00,,,0.00,VWS V14.01,2013-09-06 12:19:00,
2013-09-06 05:24:00,57.2,36.6,29.96,SSW,204,0.0,0.0,46,0.00,,,0.00,VWS V14.01,2013-09-06 12:24:00,
2013-09-06 05:29:00,57.0,37.0,29.96,SSW,204,0.0,0.0,47,0.00,,,0.00,VWS V14.01,2013-09-06 12:29:00,
2013-09-06 05:34:00,57.2,37.2,29.96,SSW,204,0.0,0.0,47,0.00,,,0.00,VWS V14.01,2013-09-06 12:34:00,
2013-09-06 05:39:00,57.2,37.2,29.96,SSW,204,0.0,0.0,47,0.00,,,0.00,VWS V14.01,2013-09-06 12:39:00,
2013-09-06 05:44:00,57.2,37.2,29.96,SSW,204,0.0,0.0,47,0.00,,,0.00,VWS V14.01,2013-09-06 12:44:00,
2013-09-06 05:49:00,57.4,37.9,29.96,SSW,204,0.0,0.0,48,0.00,,,0.00,VWS V14.01,2013-09-06 12:49:00,
2013-09-06 05:54:00,57.4,37.3,29.96,SSW,204,0.0,0.0,47,0.00,,,0.00,VWS V14.01,2013-09-06 12:54:00,
2013-09-06 05:59:00,57.2,37.2,29.96,SSW,205,0.0,0.0,47,0.00,,,0.00,VWS V14.01,2013-09-06 12:59:00,
2013-09-06 06:04:00,57.2,37.7,29.96,SSW,204,0.0,0.0,48,0.00,,,0.00,VWS V14.01,2013-09-06 13:04:00,
2013-09-06 06:09:00,57.0,37.5,29.96,SSW,204,0.0,0.0,48,0.00,,,0.00,VWS V14.01,2013-09-06 13:09:00,
2013-09-06 06:14:00,56.8,37.4,29.96,SSW,204,0.0,0.0,48,0.00,,,0.00,VWS V14.01,2013-09-06 13:14:00,
2013-09-06 06:19:00,56.8,37.4,29.96,SSW,205,0.0,0.0,48,0.00,,,0.00,VWS V14.01,2013-09-06 13:19:00,
2013-09-06 06:24:00,57.0,38.1,29.96,SSW,204,0.0,0.0,49,0.00,,,0.00,VWS V14.01,2013-09-06 13:24:00,
2013-09-06 06:29:00,57.2,37.7,29.96,SSW,205,0.0,0.0,48,0.00,,,0.00,VWS V14.01,2013-09-06 13:29:00,
2013-09-06 06:34:00,57.4,38.4,29.96,SSW,204,0.0,0.0,49,0.00,,,0.00,VWS V14.01,2013-09-06 13:34:00,
2013-09-06 06:39:00,57.6,38.6,29.96,SSW,204,0.0,3.1,49,0.00,,,0.00,VWS V14.01,2013-09-06 13:39:00,
2013-09-06 06:44:00,57.9,38.4,29.96,SSW,205,2.2,2.7,48,0.00,,,0.00,VWS V14.01,2013-09-06 13:44:00,
2013-09-06 06:49:00,58.1,38.0,29.96,SSW,204,3.1,3.1,47,0.00,,,0.00,VWS V14.01,2013-09-06 13:49:00,
2013-09-06 06:54:00,58.5,37.2,29.96,SSW,205,3.1,3.6,45,0.00,,,0.00,VWS V14.01,2013-09-06 13:54:00,
2013-09-06 06:59:00,58.5,36.1,29.96,SSW,205,0.0,2.2,43,0.00,,,0.00,VWS V14.01,2013-09-06 13:59:00,
2013-09-06 07:04:00,58.6,35.6,29.96,SSW,205,2.7,3.1,42,0.00,,,0.00,VWS V14.01,2013-09-06 14:04:00,
2013-09-06 07:09:00,59.0,36.0,29.96,SSW,204,0.0,0.0,42,0.00,,,0.00,VWS V14.01,2013-09-06 14:09:00,
2013-09-06 07:14:00,59.2,35.5,29.96,SSW,205,2.2,2.2,41,0.00,,,0.00,VWS V14.01,2013-09-06 14:14:00,
2013-09-06 07:19:00,59.2,35.5,29.96,SSW,204,0.0,0.0,41,0.00,,,0.00,VWS V14.01,2013-09-06 14:19:00,
2013-09-06 07:24:00,59.4,35.7,29.99,SSW,204,0.0,0.0,41,0.00,,,0.00,VWS V14.01,2013-09-06 14:24:00,
2013-09-06 07:29:00,59.4,35.1,29.99,SSW,205,0.0,0.0,40,0.00,,,0.00,VWS V14.01,2013-09-06 14:29:00,
2013-09-06 07:34:00,59.2,34.9,29.99,SSW,204,0.0,0.0,40,0.00,,,0.00,VWS V14.01,2013-09-06 14:34:00,
2013-09-06 07:39:00,59.2,34.9,29.99,SSW,204,0.0,0.0,40,0.00,,,0.00,VWS V14.01,2013-09-06 14:39:00,
2013-09-06 07:44:00,59.2,34.9,29.99,SSW,204,0.0,0.0,40,0.00,,,0.00,VWS V14.01,2013-09-06 14:44:00,
2013-09-06 07:49:00,59.4,35.1,29.99,SSW,204,0.0,0.0,40,0.00,,,0.00,VWS V14.01,2013-09-06 14:49:00,
2013-09-06 07:54:00,59.9,36.2,29.99,SSW,204,0.0,0.0,41,0.00,,,0.00,VWS V14.01,2013-09-06 14:54:00,
2013-09-06 07:59:00,60.8,35.7,29.99,SSW,205,0.0,0.0,39,0.00,,,0.00,VWS V14.01,2013-09-06 14:59:00,
2013-09-06 08:04:00,61.5,36.3,29.99,SSW,205,0.0,0.0,39,0.00,,,0.00,VWS V14.01,2013-09-06 15:04:00,
2013-09-06 08:09:00,62.4,36.5,29.99,SSW,204,0.0,0.0,38,0.00,,,0.00,VWS V14.01,2013-09-06 15:09:00,
2013-09-06 08:14:00,63.5,36.8,29.99,SSW,204,0.0,0.0,37,0.00,,,0.00,VWS V14.01,2013-09-06 15:14:00,
2013-09-06 08:19:00,63.7,36.2,29.99,SSW,204,0.0,0.0,36,0.00,,,0.00,VWS V14.01,2013-09-06 15:19:00,
2013-09-06 08:24:00,63.9,36.4,29.99,SSW,205,0.0,0.0,36,0.00,,,0.00,VWS V14.01,2013-09-06 15:24:00,
2013-09-06 08:29:00,64.0,35.9,29.99,SSW,205,0.0,0.0,35,0.00,,,0.00,VWS V14.01,2013-09-06 15:29:00,
2013-09-06 08:34:00,64.4,35.5,29.99,East,101,2.7,3.6,34,0.00,,,0.00,VWS V14.01,2013-09-06 15:34:00,
2013-09-06 08:39:00,65.3,35.5,29.96,NNW,327,2.7,3.6,33,0.00,,,0.00,VWS V14.01,2013-09-06 15:39:00,
2013-09-06 08:44:00,65.3,35.5,29.96,West,279,0.0,0.0,33,0.00,,,0.00,VWS V14.01,2013-09-06 15:44:00,
2013-09-06 08:49:00,65.3,34.7,29.96,West,267,0.0,0.0,32,0.00,,,0.00,VWS V14.01,2013-09-06 15:49:00,
2013-09-06 08:54:00,65.3,33.9,29.96,West,267,0.0,0.0,31,0.00,,,0.00,VWS V14.01,2013-09-06 15:54:00,
2013-09-06 08:59:00,65.3,33.9,29.96,West,267,0.0,2.2,31,0.00,,,0.00,VWS V14.01,2013-09-06 15:59:00,
2013-09-06 09:04:00,65.5,34.1,29.96,West,266,0.0,0.0,31,0.00,,,0.00,VWS V14.01,2013-09-06 16:04:00,
2013-09-06 09:09:00,65.7,33.4,29.96,West,267,0.0,0.0,30,0.00,,,0.00,VWS V14.01,2013-09-06 16:09:00,
2013-09-06 09:14:00,66.0,32.9,29.96,West,266,0.0,0.0,29,0.00,,,0.00,VWS V14.01,2013-09-06 16:14:00,
2013-09-06 09:19:00,66.7,31.7,29.96,West,266,0.0,0.0,27,0.00,,,0.00,VWS V14.01,2013-09-06 16:19:00,
2013-09-06 09:24:00,67.5,29.4,29.96,SSE,150,0.0,0.0,24,0.00,,,0.00,VWS V14.01,2013-09-06 16:24:00,
2013-09-06 09:29:00,68.2,29.0,29.96,SSW,205,2.2,3.1,23,0.00,,,0.00,VWS V14.01,2013-09-06 16:29:00,
2013-09-06 09:34:00,68.5,29.3,29.96,SSW,205,0.0,0.0,23,0.00,,,0.00,VWS V14.01,2013-09-06 16:34:00,
2013-09-06 09:39:00,68.9,28.5,29.96,West,271,3.1,3.6,22,0.00,,,0.00,VWS V14.01,2013-09-06 16:39:00,
2013-09-06 09:44:00,68.9,28.5,29.96,WNW,286,0.0,0.0,22,0.00,,,0.00,VWS V14.01,2013-09-06 16:44:00,
2013-09-06 09:49:00,69.1,28.7,29.96,SSW,203,3.1,3.1,22,0.00,,,0.00,VWS V14.01,2013-09-06 16:49:00,
2013-09-06 09:54:00,69.1,26.4,29.99,WSW,258,0.0,0.0,20,0.00,,,0.00,VWS V14.01,2013-09-06 16:54:00,
2013-09-06 09:59:00,69.3,26.5,29.99,SW,229,3.6,4.0,20,0.00,,,0.00,VWS V14.01,2013-09-06 16:59:00,
2013-09-06 10:04:00,69.4,26.7,29.99,SSW,204,2.7,2.7,20,0.00,,,0.00,VWS V14.01,2013-09-06 17:04:00,
2013-09-06 10:09:00,69.6,26.8,29.99,WNW,294,3.6,3.6,20,0.00,,,0.00,VWS V14.01,2013-09-06 17:09:00,
2013-09-06 10:14:00,69.6,26.8,29.99,West,260,2.2,2.2,20,0.00,,,0.00,VWS V14.01,2013-09-06 17:14:00,
2013-09-06 10:19:00,70.0,25.9,29.99,SSW,208,2.7,2.7,19,0.00,,,0.00,VWS V14.01,2013-09-06 17:19:00,
2013-09-06 10:24:00,70.0,25.9,29.99,SW,230,2.2,2.2,19,0.00,,,0.00,VWS V14.01,2013-09-06 17:24:00,
2013-09-06 10:29:00,70.5,26.3,29.99,SW,230,3.1,3.1,19,0.00,,,0.00,VWS V14.01,2013-09-06 17:29:00,
2013-09-06 10:34:00,71.4,24.4,29.99,WNW,288,2.7,2.7,17,0.00,,,0.00,VWS V14.01,2013-09-06 17:34:00,
2013-09-06 10:39:00,71.6,23.1,29.99,SSW,201,0.0,0.0,16,0.00,,,0.00,VWS V14.01,2013-09-06 17:39:00,
2013-09-06 10:44:00,72.1,20.4,29.99,WSW,239,3.1,3.1,14,0.00,,,0.00,VWS V14.01,2013-09-06 17:44:00,
2013-09-06 10:49:00,72.7,20.8,29.99,SSE,148,3.1,3.1,14,0.00,,,0.00,VWS V14.01,2013-09-06 17:49:00,
2013-09-06 10:54:00,73.2,21.2,29.96,SW,222,0.0,0.0,14,0.00,,,0.00,VWS V14.01,2013-09-06 17:54:00,
2013-09-06 10:59:00,73.6,19.8,29.96,SW,222,3.1,3.1,13,0.00,,,0.00,VWS V14.01,2013-09-06 17:59:00,
2013-09-06 11:04:00,73.6,15.9,29.96,SW,216,0.0,2.7,11,0.00,,,0.00,VWS V14.01,2013-09-06 18:04:00,
2013-09-06 11:09:00,74.1,16.3,29.96,WNW,285,3.6,3.6,11,0.00,,,0.00,VWS V14.01,2013-09-06 18:09:00,
2013-09-06 11:14:00,74.3,16.4,29.96,South,186,3.6,4.0,11,0.00,,,0.00,VWS V14.01,2013-09-06 18:14:00,
2013-09-06 11:19:00,74.7,16.7,29.96,SW,230,2.7,3.6,11,0.00,,,0.00,VWS V14.01,2013-09-06 18:19:00,
2013-09-06 11:24:00,74.5,16.6,29.96,WSW,253,0.0,0.0,11,0.00,,,0.00,VWS V14.01,2013-09-06 18:24:00,
2013-09-06 11:29:00,74.8,16.9,29.96,WSW,257,3.6,3.6,11,0.00,,,0.00,VWS V14.01,2013-09-06 18:29:00,
2013-09-06 11:34:00,75.4,15.1,29.96,WSW,238,2.7,3.6,10,0.00,,,0.00,VWS V14.01,2013-09-06 18:34:00,
2013-09-06 11:39:00,75.6,15.2,29.96,South,190,0.0,4.5,10,0.00,,,0.00,VWS V14.01,2013-09-06 18:39:00,
2013-09-06 11:44:00,75.6,15.2,29.96,SW,236,4.0,4.0,10,0.00,,,0.00,VWS V14.01,2013-09-06 18:44:00,
2013-09-06 11:49:00,76.1,15.6,29.96,SW,228,4.0,4.0,10,0.00,,,0.00,VWS V14.01,2013-09-06 18:49:00,
2013-09-06 11:54:00,76.3,15.8,29.96,West,267,2.7,3.6,10,0.00,,,0.00,VWS V14.01,2013-09-06 18:54:00,
2013-09-06 11:59:00,76.5,15.9,29.96,SW,227,3.1,3.1,10,0.00,,,0.00,VWS V14.01,2013-09-06 18:59:00,
2013-09-06 12:04:00,76.8,16.2,29.96,SW,231,3.1,3.1,10,0.00,,,0.00,VWS V14.01,2013-09-06 19:04:00,
2013-09-06 12:09:00,77.4,16.6,29.96,SW,235,0.0,3.1,10,0.00,,,0.00,VWS V14.01,2013-09-06 19:09:00,
2013-09-06 12:14:00,77.9,17.0,29.96,SSW,206,3.1,3.1,10,0.00,,,0.00,VWS V14.01,2013-09-06 19:14:00,
2013-09-06 12:19:00,78.3,17.3,29.96,SSW,198,0.0,0.0,10,0.00,,,0.00,VWS V14.01,2013-09-06 19:19:00,
2013-09-06 12:24:00,79.3,10.0,29.96,West,280,0.0,3.6,7,0.00,,,0.00,VWS V14.01,2013-09-06 19:24:00,
2013-09-06 12:29:00,79.7,10.2,29.96,SSW,208,0.0,0.0,7,0.00,,,0.00,VWS V14.01,2013-09-06 19:29:00,
2013-09-06 12:34:00,80.1,10.5,29.96,West,266,4.0,4.0,7,0.00,,,0.00,VWS V14.01,2013-09-06 19:34:00,
2013-09-06 12:39:00,80.1,10.5,29.93,West,270,2.7,2.7,7,0.00,,,0.00,VWS V14.01,2013-09-06 19:39:00,
2013-09-06 12:44:00,80.4,10.8,29.93,SSW,192,2.2,3.1,7,0.00,,,0.00,VWS V14.01,2013-09-06 19:44:00,
2013-09-06 12:49:00,81.0,11.2,29.93,West,260,0.0,0.0,7,0.00,,,0.00,VWS V14.01,2013-09-06 19:49:00,
2013-09-06 12:54:00,81.3,11.4,29.93,SSW,203,3.6,3.6,7,0.00,,,0.00,VWS V14.01,2013-09-06 19:54:00,
2013-09-06 12:59:00,81.9,11.8,29.93,West,263,4.0,4.0,7,0.00,,,0.00,VWS V14.01,2013-09-06 19:59:00,
2013-09-06 13:04:00,81.9,11.8,29.93,SW,219,3.6,3.6,7,0.00,,,0.00,VWS V14.01,2013-09-06 20:04:00,
2013-09-06 13:09:00,81.7,11.7,29.93,SSW,203,2.2,4.0,7,0.00,,,0.00,VWS V14.01,2013-09-06 20:09:00,
2013-09-06 13:14:00,82.0,11.9,29.93,SSW,206,3.6,3.6,7,0.00,,,0.00,VWS V14.01,2013-09-06 20:14:00,
2013-09-06 13:19:00,82.0,11.9,29.93,West,262,4.9,4.9,7,0.00,,,0.00,VWS V14.01,2013-09-06 20:19:00,
2013-09-06 13:24:00,81.7,11.7,29.93,SW,231,3.6,3.6,7,0.00,,,0.00,VWS V14.01,2013-09-06 20:24:00,
2013-09-06 13:29:00,81.9,11.8,29.93,SSW,206,3.1,4.0,7,0.00,,,0.00,VWS V14.01,2013-09-06 20:29:00,
2013-09-06 13:34:00,82.8,9.0,29.93,SSW,210,4.9,4.9,6,0.00,,,0.00,VWS V14.01,2013-09-06 20:34:00,
2013-09-06 13:39:00,83.1,9.3,29.93,WSW,237,3.1,3.1,6,0.00,,,0.00,VWS V14.01,2013-09-06 20:39:00,
2013-09-06 13:44:00,83.3,9.4,29.93,West,264,3.6,5.8,6,0.00,,,0.00,VWS V14.01,2013-09-06 20:44:00,
2013-09-06 13:49:00,82.2,12.1,29.93,SW,223,3.6,3.6,7,0.00,,,0.00,VWS V14.01,2013-09-06 20:49:00,
2013-09-06 13:54:00,82.9,9.1,29.93,SW,224,3.6,3.6,6,0.00,,,0.00,VWS V14.01,2013-09-06 20:54:00,
2013-09-06 13:59:00,83.7,9.7,29.93,SSW,205,3.1,4.0,6,0.00,,,0.00,VWS V14.01,2013-09-06 20:59:00,
2013-09-06 14:04:00,84.4,10.2,29.93,SSW,212,5.8,5.8,6,0.00,,,0.00,VWS V14.01,2013-09-06 21:04:00,
2013-09-06 14:09:00,84.6,10.3,29.93,West,271,3.6,4.9,6,0.00,,,0.00,VWS V14.01,2013-09-06 21:09:00,
2013-09-06 14:14:00,83.3,9.4,29.93,NW,316,3.6,3.6,6,0.00,,,0.00,VWS V14.01,2013-09-06 21:14:00,
2013-09-06 14:19:00,83.5,9.5,29.93,WSW,250,3.6,4.9,6,0.00,,,0.00,VWS V14.01,2013-09-06 21:19:00,
2013-09-06 14:24:00,84.0,9.9,29.90,WSW,241,3.1,3.1,6,0.00,,,0.00,VWS V14.01,2013-09-06 21:24:00,
2013-09-06 14:29:00,84.9,10.6,29.90,WNW,293,3.1,4.9,6,0.00,,,0.00,VWS V14.01,2013-09-06 21:29:00,
2013-09-06 14:34:00,85.1,10.7,29.90,SW,225,3.6,4.9,6,0.00,,,0.00,VWS V14.01,2013-09-06 21:34:00,
2013-09-06 14:39:00,85.5,11.0,29.90,SSW,209,2.7,4.0,6,0.00,,,0.00,VWS V14.01,2013-09-06 21:39:00,
2013-09-06 14:44:00,86.2,11.5,29.90,SW,228,2.7,3.6,6,0.00,,,0.00,VWS V14.01,2013-09-06 21:44:00,
2013-09-06 14:49:00,86.9,12.0,29.90,WSW,238,3.6,4.0,6,0.00,,,0.00,VWS V14.01,2013-09-06 21:49:00,
2013-09-06 14:54:00,87.1,12.1,29.90,WNW,285,4.0,4.9,6,0.00,,,0.00,VWS V14.01,2013-09-06 21:54:00,
2013-09-06 14:59:00,87.3,12.2,29.90,SSW,209,3.1,4.0,6,0.00,,,0.00,VWS V14.01,2013-09-06 21:59:00,
2013-09-06 15:04:00,87.4,12.4,29.90,SSW,206,4.9,4.9,6,0.00,,,0.00,VWS V14.01,2013-09-06 22:04:00,
2013-09-06 15:09:00,87.6,12.5,29.90,South,183,4.9,4.9,6,0.00,,,0.00,VWS V14.01,2013-09-06 22:09:00,
2013-09-06 15:14:00,88.2,8.8,29.90,South,185,4.9,4.9,5,0.00,,,0.00,VWS V14.01,2013-09-06 22:14:00,
2013-09-06 15:19:00,88.2,8.8,29.90,SSW,213,2.7,4.0,5,0.00,,,0.00,VWS V14.01,2013-09-06 22:19:00,
2013-09-06 15:24:00,88.3,8.9,29.90,SW,222,3.6,3.6,5,0.00,,,0.00,VWS V14.01,2013-09-06 22:24:00,
2013-09-06 15:29:00,88.2,8.8,29.90,SSW,209,4.0,4.0,5,0.00,,,0.00,VWS V14.01,2013-09-06 22:29:00,
2013-09-06 15:35:00,88.0,8.7,29.90,WSW,240,2.7,3.1,5,0.00,,,0.00,VWS V14.01,2013-09-06 22:35:00,
2013-09-06 15:40:00,88.0,8.7,29.90,SSW,205,2.7,3.1,5,0.00,,,0.00,VWS V14.01,2013-09-06 22:40:00,
2013-09-06 15:45:00,88.3,8.9,29.90,WSW,237,4.0,5.4,5,0.00,,,0.00,VWS V14.01,2013-09-06 22:45:00,
2013-09-06 15:50:00,88.3,8.9,29.90,SW,230,4.0,4.0,5,0.00,,,0.00,VWS V14.01,2013-09-06 22:50:00,
2013-09-06 15:55:00,88.5,9.1,29.87,SW,227,4.9,4.9,5,0.00,,,0.00,VWS V14.01,2013-09-06 22:55:00,
2013-09-06 16:00:00,88.5,9.1,29.87,WNW,291,3.1,3.1,5,0.00,,,0.00,VWS V14.01,2013-09-06 23:00:00,
2013-09-06 16:05:00,89.1,9.4,29.87,South,190,0.0,3.1,5,0.00,,,0.00,VWS V14.01,2013-09-06 23:05:00,
2013-09-06 16:10:00,89.1,9.4,29.87,WSW,241,2.2,4.0,5,0.00,,,0.00,VWS V14.01,2013-09-06 23:10:00,
2013-09-06 16:15:00,89.1,9.4,29.87,South,184,0.0,3.1,5,0.00,,,0.00,VWS V14.01,2013-09-06 23:15:00,
2013-09-06 16:20:00,89.2,9.6,29.87,SSW,206,2.7,3.1,5,0.00,,,0.00,VWS V14.01,2013-09-06 23:20:00,
2013-09-06 16:25:00,89.1,9.4,29.87,SSW,205,4.0,4.0,5,0.00,,,0.00,VWS V14.01,2013-09-06 23:25:00,
2013-09-06 16:30:00,89.2,9.6,29.87,West,268,3.6,4.0,5,0.00,,,0.00,VWS V14.01,2013-09-06 23:30:00,
2013-09-06 16:35:00,89.2,9.6,29.87,SW,220,4.0,4.0,5,0.00,,,0.00,VWS V14.01,2013-09-06 23:35:00,
2013-09-06 16:40:00,89.4,9.7,29.87,South,179,2.7,2.7,5,0.00,,,0.00,VWS V14.01,2013-09-06 23:40:00,
2013-09-06 16:45:00,89.6,9.8,29.87,SW,217,2.7,2.7,5,0.00,,,0.00,VWS V14.01,2013-09-06 23:45:00,
2013-09-06 16:50:00,89.4,9.7,29.87,South,174,0.0,2.2,5,0.00,,,0.00,VWS V14.01,2013-09-06 23:50:00,
2013-09-06 16:55:00,89.4,9.7,29.87,South,179,2.7,2.7,5,0.00,,,0.00,VWS V14.01,2013-09-06 23:55:00,
2013-09-06 17:00:00,89.1,9.4,29.87,SW,231,4.0,4.0,5,0.00,,,0.00,VWS V14.01,2013-09-07 00:00:00,
2013-09-06 17:05:00,88.7,9.2,29.87,SW,223,3.6,3.6,5,0.00,,,0.00,VWS V14.01,2013-09-07 00:05:00,
2013-09-06 17:10:00,88.3,8.9,29.87,SW,230,3.6,3.6,5,0.00,,,0.00,VWS V14.01,2013-09-07 00:10:00,
2013-09-06 17:15:00,88.0,8.7,29.87,West,264,2.7,3.6,5,0.00,,,0.00,VWS V14.01,2013-09-07 00:15:00,
2013-09-06 17:20:00,88.2,8.8,29.87,South,184,2.2,2.7,5,0.00,,,0.00,VWS V14.01,2013-09-07 00:20:00,
2013-09-06 17:25:00,88.2,8.8,29.87,SW,221,2.2,3.1,5,0.00,,,0.00,VWS V14.01,2013-09-07 00:25:00,
2013-09-06 17:30:00,88.0,8.7,29.87,SSW,198,2.7,3.6,5,0.00,,,0.00,VWS V14.01,2013-09-07 00:30:00,
2013-09-06 17:35:00,87.8,8.6,29.87,SW,222,3.1,3.1,5,0.00,,,0.00,VWS V14.01,2013-09-07 00:35:00,
2013-09-06 17:40:00,87.4,12.4,29.87,SW,224,0.0,2.7,6,0.00,,,0.00,VWS V14.01,2013-09-07 00:40:00,
2013-09-06 17:45:00,87.6,12.5,29.87,SSW,205,3.1,3.6,6,0.00,,,0.00,VWS V14.01,2013-09-07 00:45:00,
2013-09-06 17:50:00,87.4,12.4,29.84,SW,214,2.7,2.7,6,0.00,,,0.00,VWS V14.01,2013-09-07 00:50:00,
2013-09-06 17:55:00,87.3,12.2,29.84,SW,215,3.1,3.6,6,0.00,,,0.00,VWS V14.01,2013-09-07 00:55:00,
2013-09-06 18:00:00,86.9,12.0,29.84,SSW,200,0.0,0.0,6,0.00,,,0.00,VWS V14.01,2013-09-07 01:00:00,
2013-09-06 18:05:00,86.5,11.7,29.84,SW,215,0.0,3.6,6,0.00,,,0.00,VWS V14.01,2013-09-07 01:05:00,
2013-09-06 18:10:00,86.4,11.6,29.87,SW,217,0.0,2.7,6,0.00,,,0.00,VWS V14.01,2013-09-07 01:10:00,
2013-09-06 18:15:00,86.0,11.4,29.87,SSW,209,2.7,3.6,6,0.00,,,0.00,VWS V14.01,2013-09-07 01:15:00,
2013-09-06 18:20:00,85.5,11.0,29.87,SW,220,0.0,0.0,6,0.00,,,0.00,VWS V14.01,2013-09-07 01:20:00,
2013-09-06 18:25:00,85.3,10.8,29.87,SW,220,0.0,0.0,6,0.00,,,0.00,VWS V14.01,2013-09-07 01:25:00,
2013-09-06 18:30:00,85.1,10.7,29.87,SSW,209,0.0,0.0,6,0.00,,,0.00,VWS V14.01,2013-09-07 01:30:00,
2013-09-06 18:35:00,85.3,10.8,29.87,SSW,209,0.0,0.0,6,0.00,,,0.00,VWS V14.01,2013-09-07 01:35:00,
2013-09-06 18:40:00,85.3,10.8,29.87,SSW,204,0.0,0.0,6,0.00,,,0.00,VWS V14.01,2013-09-07 01:40:00,
2013-09-06 18:45:00,85.3,10.8,29.87,SSW,209,0.0,0.0,6,0.00,,,0.00,VWS V14.01,2013-09-07 01:45:00,
2013-09-06 18:50:00,84.7,10.4,29.87,SSW,204,0.0,0.0,6,0.00,,,0.00,VWS V14.01,2013-09-07 01:50:00,
2013-09-06 18:55:00,84.4,10.2,29.87,WSW,250,2.2,2.7,6,0.00,,,0.00,VWS V14.01,2013-09-07 01:55:00,
2013-09-06 19:00:00,84.0,9.9,29.87,WSW,250,0.0,0.0,6,0.00,,,0.00,VWS V14.01,2013-09-07 02:00:00,
2013-09-06 19:05:00,83.8,9.8,29.87,NNW,330,0.0,3.6,6,0.00,,,0.00,VWS V14.01,2013-09-07 02:05:00,
2013-09-06 19:10:00,83.5,9.5,29.87,North,4,0.0,0.0,6,0.00,,,0.00,VWS V14.01,2013-09-07 02:10:00,
2013-09-06 19:15:00,82.9,9.1,29.87,ENE,72,4.0,4.0,6,0.00,,,0.00,VWS V14.01,2013-09-07 02:15:00,
2013-09-06 19:20:00,81.9,11.8,29.87,NNW,343,2.7,2.7,7,0.00,,,0.00,VWS V14.01,2013-09-07 02:20:00,
2013-09-06 19:25:00,81.0,11.2,29.87,North,357,5.4,6.3,7,0.00,,,0.00,VWS V14.01,2013-09-07 02:25:00,
2013-09-06 19:30:00,80.1,10.5,29.87,NE,39,3.6,5.4,7,0.00,,,0.00,VWS V14.01,2013-09-07 02:30:00,
2013-09-06 19:35:00,79.2,9.8,29.87,WNW,300,2.7,4.0,7,0.00,,,0.00,VWS V14.01,2013-09-07 02:35:00,
2013-09-06 19:40:00,78.6,12.4,29.87,North,0,4.0,5.4,8,0.00,,,0.00,VWS V14.01,2013-09-07 02:40:00,
2013-09-06 19:45:00,78.1,12.0,29.87,NNW,342,6.3,6.3,8,0.00,,,0.00,VWS V14.01,2013-09-07 02:45:00,
2013-09-06 19:50:00,77.5,11.6,29.87,North,357,5.8,7.6,8,0.00,,,0.00,VWS V14.01,2013-09-07 02:50:00,
2013-09-06 19:55:00,77.2,11.4,29.87,North,357,5.4,5.4,8,0.00,,,0.00,VWS V14.01,2013-09-07 02:55:00,
2013-09-06 20:00:00,76.6,11.0,29.87,NNE,33,6.3,6.3,8,0.00,,,0.00,VWS V14.01,2013-09-07 03:00:00,
2013-09-06 20:05:00,76.1,10.6,29.87,NNE,14,5.4,9.6,8,0.00,,,0.00,VWS V14.01,2013-09-07 03:05:00,
2013-09-06 20:10:00,75.7,10.3,29.87,North,10,8.1,8.1,8,0.00,,,0.00,VWS V14.01,2013-09-07 03:10:00,
2013-09-06 20:15:00,75.4,10.0,29.87,North,2,6.3,7.6,8,0.00,,,0.00,VWS V14.01,2013-09-07 03:15:00,
2013-09-06 20:20:00,75.2,9.9,29.87,NE,42,8.3,8.7,8,0.00,,,0.00,VWS V14.01,2013-09-07 03:20:00,
2013-09-06 20:25:00,75.0,9.8,29.87,NNE,28,3.1,6.3,8,0.00,,,0.00,VWS V14.01,2013-09-07 03:25:00,
2013-09-06 20:30:00,74.7,9.5,29.87,North,5,4.0,6.7,8,0.00,,,0.00,VWS V14.01,2013-09-07 03:30:00,
2013-09-06 20:35:00,74.5,9.4,29.87,NNE,18,5.4,8.3,8,0.00,,,0.00,VWS V14.01,2013-09-07 03:35:00,
2013-09-06 20:40:00,74.3,9.2,29.87,North,4,5.8,8.3,8,0.00,,,0.00,VWS V14.01,2013-09-07 03:40:00,
2013-09-06 20:44:00,74.3,9.2,29.87,NNE,20,4.0,8.7,8,0.00,,,0.00,VWS V14.01,2013-09-07 03:44:00,
2013-09-06 20:50:00,74.3,9.2,29.87,NNW,346,7.6,7.6,8,0.00,,,0.00,VWS V14.01,2013-09-07 03:50:00,
2013-09-06 20:54:00,74.1,9.1,29.87,North,0,5.8,6.3,8,0.00,,,0.00,VWS V14.01,2013-09-07 03:54:00,
2013-09-06 20:59:00,73.9,9.0,29.87,NNE,19,5.4,5.4,8,0.00,,,0.00,VWS V14.01,2013-09-07 03:59:00,
2013-09-06 21:01:00,73.9,9.0,29.87,North,8,5.8,6.3,8,0.00,,,0.00,VWS V14.01,2013-09-07 04:01:00,
2013-09-06 21:05:00,73.6,8.7,29.87,NE,43,5.4,5.4,8,0.00,,,0.00,VWS V14.01,2013-09-07 04:05:00,
2013-09-06 21:10:00,73.6,8.7,29.87,NNE,32,5.4,5.8,8,0.00,,,0.00,VWS V14.01,2013-09-07 04:10:00,
2013-09-06 21:15:00,73.6,8.7,29.87,NE,50,5.4,5.4,8,0.00,,,0.00,VWS V14.01,2013-09-07 04:15:00,
2013-09-06 21:20:00,73.4,8.6,29.87,NNE,20,5.4,6.7,8,0.00,,,0.00,VWS V14.01,2013-09-07 04:20:00,
2013-09-06 21:25:00,73.6,8.7,29.87,North,6,5.4,5.4,8,0.00,,,0.00,VWS V14.01,2013-09-07 04:25:00,
2013-09-06 21:30:00,73.6,8.7,29.87,ENE,71,5.8,6.3,8,0.00,,,0.00,VWS V14.01,2013-09-07 04:30:00,
2013-09-06 21:35:00,73.6,8.7,29.87,NNE,21,7.6,7.6,8,0.00,,,0.00,VWS V14.01,2013-09-07 04:35:00,
2013-09-06 21:40:00,73.4,8.6,29.87,NNE,21,5.4,5.4,8,0.00,,,0.00,VWS V14.01,2013-09-07 04:40:00,
2013-09-06 21:45:00,73.4,8.6,29.87,NNE,23,6.3,7.6,8,0.00,,,0.00,VWS V14.01,2013-09-07 04:45:00,
2013-09-06 21:50:00,73.6,8.7,29.87,NNE,19,6.3,6.3,8,0.00,,,0.00,VWS V14.01,2013-09-07 04:50:00,
2013-09-06 21:55:00,73.6,8.7,29.87,NNE,30,4.9,5.8,8,0.00,,,0.00,VWS V14.01,2013-09-07 04:55:00,
2013-09-06 22:00:00,73.9,9.0,29.87,NNE,25,5.8,5.8,8,0.00,,,0.00,VWS V14.01,2013-09-07 05:00:00,
2013-09-06 22:05:00,74.3,9.2,29.87,NE,41,5.8,6.3,8,0.00,,,0.00,VWS V14.01,2013-09-07 05:05:00,
2013-09-06 22:10:00,74.5,9.4,29.87,NNE,22,5.4,7.6,8,0.00,,,0.00,VWS V14.01,2013-09-07 05:10:00,
2013-09-06 22:15:00,74.7,9.5,29.87,North,11,4.0,8.3,8,0.00,,,0.00,VWS V14.01,2013-09-07 05:15:00,
2013-09-06 22:20:00,74.7,9.5,29.87,NNE,15,4.0,5.4,8,0.00,,,0.00,VWS V14.01,2013-09-07 05:20:00,
2013-09-06 22:25:00,74.7,9.5,29.87,NNE,14,5.4,5.4,8,0.00,,,0.00,VWS V14.01,2013-09-07 05:25:00,
2013-09-06 22:30:00,74.7,9.5,29.87,NE,35,5.8,5.8,8,0.00,,,0.00,VWS V14.01,2013-09-07 05:30:00,
2013-09-06 22:35:00,74.7,9.5,29.87,NW,324,4.9,6.3,8,0.00,,,0.00,VWS V14.01,2013-09-07 05:35:00,
2013-09-06 22:40:00,74.5,9.4,29.87,NNE,28,5.4,5.8,8,0.00,,,0.00,VWS V14.01,2013-09-07 05:40:00,
2013-09-06 22:45:00,74.3,9.2,29.87,NE,35,6.3,6.3,8,0.00,,,0.00,VWS V14.01,2013-09-07 05:45:00,
2013-09-06 22:50:00,74.7,9.5,29.87,NNE,18,5.8,6.3,8,0.00,,,0.00,VWS V14.01,2013-09-07 05:50:00,
2013-09-06 22:55:00,74.5,9.4,29.87,NNE,23,5.4,6.3,8,0.00,,,0.00,VWS V14.01,2013-09-07 05:55:00,
2013-09-06 23:00:00,74.3,9.2,29.87,ENE,61,5.4,5.8,8,0.00,,,0.00,VWS V14.01,2013-09-07 06:00:00,
2013-09-06 23:05:00,74.3,9.2,29.87,NE,40,5.8,5.8,8,0.00,,,0.00,VWS V14.01,2013-09-07 06:05:00,
2013-09-06 23:10:00,74.5,9.4,29.87,NNE,27,3.6,3.6,8,0.00,,,0.00,VWS V14.01,2013-09-07 06:10:00,
2013-09-06 23:15:00,74.5,9.4,29.87,NNE,23,4.9,6.3,8,0.00,,,0.00,VWS V14.01,2013-09-07 06:15:00,
2013-09-06 23:20:00,74.5,9.4,29.87,NNE,22,4.0,5.8,8,0.00,,,0.00,VWS V14.01,2013-09-07 06:20:00,
2013-09-06 23:25:00,74.8,9.6,29.87,NE,35,6.3,6.3,8,0.00,,,0.00,VWS V14.01,2013-09-07 06:25:00,
2013-09-06 23:30:00,75.0,9.8,29.87,East,85,3.1,3.6,8,0.00,,,0.00,VWS V14.01,2013-09-07 06:30:00,
2013-09-06 23:35:00,74.8,9.6,29.87,NE,38,2.7,3.1,8,0.00,,,0.00,VWS V14.01,2013-09-07 06:35:00,
2013-09-06 23:40:00,74.7,9.5,29.87,NE,44,5.8,5.8,8,0.00,,,0.00,VWS V14.01,2013-09-07 06:40:00,
2013-09-06 23:45:00,74.8,9.6,29.87,NNE,19,3.6,6.3,8,0.00,,,0.00,VWS V14.01,2013-09-07 06:45:00,
2013-09-06 23:50:00,75.2,9.9,29.87,NNE,24,5.4,5.4,8,0.00,,,0.00,VWS V14.01,2013-09-07 06:50:00,
2013-09-06 23:55:00,75.4,10.0,29.87,NNE,14,3.1,4.0,8,0.00,,,0.00,VWS V14.01,2013-09-07 06:55:00,